User: anonymous
Location: Fort Wayne
(41.1310°N, 85.1290°W)
Time: 05:09:27
(UTC-04:00)
Language:

Cosmos 2082 - Orbit

View from above orbital plane
View from above orbital plane
View from above satellite
View from above satellite

Ground track
Ground track

The orbit data is extracted from the following two-line orbital elements,

1 20624U 90046A   14244.09048471 -.00000239  00000-0 -10065-3 0  9992
2 20624 071.0418 189.5107 0013121 150.6285 286.5466 14.14092844252983
Epoch (UTC): 01 September 2014 02:10:17
Eccentricity: 0.0013121
inclination: 71.0418°
perigee height: 836 km
apogee height: 855 km
right ascension of ascending node: 189.5107°
argument of perigee: 150.6285°
revolutions per day: 14.14092844
mean anomaly at epoch: 286.5466°
orbit number at epoch: 25298

The dashed part of the orbit path shows where the satellite is in the earth's shadow,  

DLR